{"data":{"norad_id":58101,"intl_designator":"2023-161E","name":"STARLINK-30605","alt_names":[],"object_type":"PAYLOAD","status":"ACTIVE","operator":null,"country":"US","launch_date":"2023-10-21","launch_site_code":"AFWTR","launch_vehicle":null,"mission":null,"orbit_class":"UNKNOWN","rcs_meters":null,"size_class":null,"mass_kg":null,"dimensions":null,"purposes":["comms"],"wikipedia_slug":null,"has_3d_model":false,"image_url":null,"decayed_at":null,"tle_current":{"epoch":"2026-09-20T11:34:36.288480Z","epoch_age_seconds":141958,"freshness":"FRESH","line1":"1 58101U 23161E   26263.48236445 -.00000278  00000+0  29184-5 0  9999","line2":"2 58101  53.1620 338.0199 0001523  65.5507 294.5654 15.34398755164282","mean_motion":15.34398755,"eccentricity":0.0001523,"inclination_deg":53.162,"raan_deg":338.0199,"arg_perigee_deg":65.5507,"mean_anomaly_deg":294.5654,"bstar":2.9184e-6,"rev_number":16428,"period_min":93.847834228724,"perigee_km":461.66508007982,"apogee_km":463.74880114413,"semimajor_km":6840.843940612,"source":"CELESTRAK","updated_at":"2026-09-21T09:00:33.786809Z"}}}